Regional Weather Roundup
Issued by NWS

Home | Current Version | Previous Version | Graphics & Text | Print | Product List | Glossary Off
Versions: 1 2 3 4 5 6 7 8 9 10 11 12 13 14 15 16 17 18 19 20 21 22 23 24 25 26 27 28 29 30 31 32 33 34 35 36 37 38 39 40 41 42 43 44 45 46 47 48 49 50

000
ASUS43 KTOP 010459
RWRKS

WEATHER ROUNDUP FOR KANSAS
NATIONAL WEATHER SERVICE GOODLAND KS
1100 PM CST SAT JAN 31 2015

NOTE:  "FAIR" INDICATES FEW OR NO CLOUDS BELOW 12,000 FEET WITH NO
SIGNIFICANT WEATHER AND/OR OBSTRUCTIONS TO VISIBILITY.

KSZ001>006-013>018-027>032-041>047-010600-
NORTHWEST KANSAS

CITY           SKY/WX    TMP DP  RH WIND       PRES   REMARKS
GOODLAND       CLOUDY    31  29  92 N15       29.84R WCI  20
HAYS           CLOUDY    39  34  81 NW6       29.76S
HILL CITY      LGT SNOW  33  31  92 N14       29.81R FOG     WCI  23
RUSSELL        RAIN      40  39  97 S7        29.74S FOG
$$

KSZ061>065-074>080-084>089-010600-
SOUTHWEST KANSAS

CITY           SKY/WX    TMP DP  RH WIND       PRES   REMARKS
DODGE CITY     CLOUDY    39  36  89 NW12      29.78S WCI  32
ELKHART          N/A     37  34  89 NW7         N/A
GARDEN CITY    MIX PCPN  34  33  96 NW15      29.81R WCI  24
LIBERAL        MOCLDY    41  36  81 NW10      29.84R
$$

KSZ066>073-081>083-090>101-010600-
SOUTHEAST KANSAS

CITY           SKY/WX    TMP DP  RH WIND       PRES   REMARKS
CHANUTE        LGT RAIN  39  39 100 S9        29.86F FOG
COFFEYVILLE    LGT RAIN  40  39  97 S13       29.87F WCI  32
HUTCHINSON     CLOUDY    41  38  89 S13       29.79F
MEDICINE LODGE   N/A     41  41 100 S7        29.80F
NEWTON         CLOUDY    39  34  81 S15       29.81F WCI  31
PARSONS        LGT RAIN  40  39  97 S9        29.87F FOG
WICHITA INTL   LGT RAIN  40  40 100 S12       29.81F FOG     WCI  33
WICHITA JABRA  RAIN      39  32  76 S14       29.81F WCI  31
WINFIELD       LGT RAIN  40  29  64 S12       29.85F WCI  33
$$

KSZ007>012-019>026-033>040-048>060-102>105-010600-
NORTHEAST KANSAS

CITY           SKY/WX    TMP DP  RH WIND       PRES   REMARKS
CONCORDIA      LGT RAIN  36  36 100 E5        29.78F FOG
EMPORIA        LGT RAIN  37  37 100 S13       29.82F WCI  29
LAWRENCE       LGT SNOW  33  32  96 SE7       29.87F FOG
MANHATTAN      RAIN      34  34 100 E3        29.83S FOG
OLATHE IND     LGT SNOW  34  33  96 SE7       29.88F FOG
OLATHE EXE     LGT SNOW  33  33 100 SE6       29.87F FOG
SALINA         LGT RAIN  40  38  93 S10       29.79F WCI  33
TOPEKA BILLARD LGT SNOW  33  32  96 E6        29.86F FOG
TOPEKA FORBES  LGT SNOW  34  32  92 SE8       29.84F FOG
$$



USA.gov is the U.S. government's official web portal to all federal, state and local government web resources and services.